Temperature
20 19 19 20 24 28 28 28 28 28 28 27 26 26 26 26 25 24 21 21 20 20 20 20 20 20 20 20 20 19 19 19 19 19 19 19 19 19 19 19 19 19 19 19 19 19 19 18 18
19 19 20 23 28 28 28 28 28 28 27 26 26 26 26 24 23 22 21 20 20 20 20 20 20 20 20 20 19 19 19 19 19 19 19 19 19 19 19 19 19 19 18 18 18 18 18 18 18
20 20 23 28 29 28 28 28 28 27 26 27 26 26 25 24 22 21 21 20 20 20 20 20 20 20 20 20 20 19 19 19 19 19 19 19 19 19 19 19 19 19 18 18 18 18 18 18 18
20 22 25 29 29 28 28 28 28 28 27 27 27 26 24 22 22 21 21 21 21 20 20 20 20 20 20 20 20 19 19 19 19 19 19 19 19 19 19 19 19 18 18 18 18 18 18 18 18
21 26 29 29 29 29 29 28 28 29 28 27 27 26 23 21 21 21 21 21 21 20 20 20 20 20 20 20 20 19 19 19 19 19 19 19 19 19 19 19 19 18 18 18 18 18 18 18 18
25 28 29 29 29 29 29 28 28 28 28 27 27 26 23 21 21 21 21 21 21 20 20 20 20 20 20 20 20 20 19 19 19 19 19 19 19 19 19 19 18 18 18 18 18 18 18 18 18
27 29 29 30 29 29 29 28 28 29 28 27 26 26 23 22 21 21 21 20 20 20 20 20 20 20 20 20 20 20 19 19 19 19 19 19 19 19 19 19 18 18 18 18 18 18 18 18 18
26 29 30 30 29 29 29 28 28 28 28 26 26 27 24 22 21 21 21 20 20 20 20 20 20 19 19 20 20 20 20 19 19 19 19 19 19 19 19 18 19 19 19 18 18 18 18 18 18
26 30 30 30 30 30 29 29 28 27 27 26 25 25 24 22 21 21 21 21 20 20 20 20 20 20 20 19 19 19 19 19 19 19 19 19 18 18 18 18 19 18 18 18 18 18 18 18 18
28 30 30 31 31 30 29 29 28 28 28 26 25 24 23 22 21 22 21 21 21 20 20 20 20 20 20 19 19 19 19 19 19 18 18 18 18 18 18 18 19 18 18 18 18 18 18 18 18
29 30 30 30 30 30 29 29 29 29 28 27 26 24 23 22 22 22 22 22 21 21 20 20 20 20 19 19 19 19 19 19 19 18 18 18 18 18 18 18 18 18 18 18 18 18 18 18 18
30 30 30 30 29 29 29 29 29 28 28 27 26 24 23 23 23 22 22 22 21 21 20 20 20 20 20 19 19 19 19 19 18 19 18 18 18 18 18 18 18 18 18 18 18 18 18 18 18
30 30 30 30 29 29 29 29 29 28 27 26 25 24 24 23 23 22 22 21 21 21 20 20 20 20 20 19 19 19 19 19 19 19 18 18 18 18 18 18 18 18 18 18 18 18 18 18 18
30 30 30 30 30 29 30 29 29 28 27 26 25 25 24 24 23 22 22 21 21 21 20 20 20 20 20 19 19 19 19 19 19 19 19 19 18 18 18 18 18 18 18 18 18 18 18 18 18
30 31 31 31 30 30 30 30 29 28 27 26 26 25 24 24 23 23 22 22 21 21 20 20 20 20 20 19 19 19 19 19 19 19 19 19 18 18 18 18 18 18 18 18 18 18 18 18 18
31 31 31 31 31 30 30 30 30 28 27 27 26 25 24 24 23 23 22 22 21 21 20 20 20 20 20 20 19 19 19 19 19 19 19 19 19 19 18 18 18 18 18 18 18 18 18 18 18
31 31 31 31 31 31 31 30 30 28 28 27 27 26 25 24 23 23 22 22 21 21 20 20 20 20 20 20 19 19 19 19 19 19 19 19 19 19 18 18 18 18 18 18 18 18 18 18 18
31 31 31 31 31 31 31 31 30 29 28 28 27 26 25 25 24 23 22 21 21 20 20 20 20 20 20 19 19 19 19 19 19 19 19 19 18 19 18 18 18 18 18 18 18 17 17 17 17
31 31 31 31 31 31 31 31 30 30 29 28 27 26 26 25 24 23 22 21 21 20 20 20 20 20 20 19 19 19 19 19 19 19 19 19 18 18 18 18 18 18 18 18 18 17 17 17 17
31 31 31 31 31 31 31 31 31 30 29 28 28 27 26 25 24 23 22 22 21 20 20 20 20 20 19 19 19 19 19 19 19 19 19 19 19 18 18 18 18 18 18 18 18 17 17 17 17
31 31 31 31 31 31 31 31 31 30 29 28 28 27 27 26 25 23 22 22 21 21 20 20 20 20 19 19 19 19 19 19 18 18 19 19 18 18 18 18 18 18 18 18 18 18 17 17 17
31 31 31 31 31 31 31 30 31 31 30 29 28 27 27 26 25 24 23 22 21 21 21 20 20 20 20 20 19 19 19 19 19 18 18 18 18 18 18 18 18 18 18 18 18 18 17 17 17
31 31 31 31 31 31 31 31 32 31 30 30 29 28 27 26 25 24 23 22 22 21 21 20 20 20 20 20 19 19 19 19 18 18 18 18 18 18 18 18 18 18 18 18 18 18 18 17 17
31 30 30 31 31 30 31 30 31 32 31 31 30 28 27 26 25 24 23 22 22 21 21 20 20 20 20 20 19 19 19 19 19 18 18 18 18 18 18 18 18 18 18 18 18 18 17 17 17
30 30 30 30 30 30 31 30 31 32 31 31 30 28 27 26 25 24 23 22 22 21 21 20 20 20 20 20 19 19 19 19 19 19 18 18 18 18 18 18 18 18 18 18 18 17 17 17 17
31 31 30 29 30 30 30 30 32 31 30 29 29 28 27 26 25 24 23 22 22 21 21 21 20 20 20 20 20 19 19 19 19 18 18 18 18 18 18 18 18 18 18 17 17 17 17 17 17
30 31 32 31 30 30 31 31 32 31 30 30 29 28 27 26 25 24 23 23 22 22 21 21 20 20 20 20 20 19 19 19 19 18 18 18 18 18 18 18 18 18 17 17 17 17 17 17 17
31 31 31 30 29 29 30 31 31 30 30 30 29 28 27 26 25 24 23 23 22 21 21 21 20 20 20 19 19 19 19 19 19 18 18 18 18 18 17 17 17 17 17 17 17 17 17 17 17
29 30 30 30 30 29 29 30 31 30 30 30 29 28 26 25 25 24 23 22 22 21 21 20 20 19 19 19 19 19 19 18 18 18 18 18 18 18 17 17 17 17 17 17 17 17 16 16 16
30 31 30 29 29 29 30 30 31 30 30 29 28 27 25 25 24 24 23 22 22 21 21 20 20 19 19 19 19 19 19 18 18 18 18 18 18 18 17 17 17 17 17 16 16 16 16 16 16
Wind_Speed
11 10 5 4 4 2 7 7 6 6 5 6 6 4 5 6 5 5 5 6 8 9 11 13 12 11 11 11 11 11 11 10 10 10 11 11 10 11 11 11 11 10 10 10 10 10 9 9 8
8 6 5 4 0 6 8 7 8 8 5 4 5 5 5 6 5 5 6 7 8 10 11 12 13 11 11 12 11 11 10 10 9 10 10 10 10 10 10 11 11 10 10 10 9 9 9 9 8
7 6 4 1 5 7 7 7 8 6 4 3 4 5 5 5 4 4 7 10 10 10 11 14 13 12 12 12 11 11 10 9 9 9 10 10 9 9 9 10 9 9 9 9 9 9 8 8 8
4 4 3 2 8 8 6 5 5 5 5 5 4 5 5 5 3 7 10 11 11 10 11 14 13 12 12 11 11 10 10 10 10 11 10 9 9 8 8 9 8 7 8 8 8 8 7 7 7
4 3 2 6 8 7 6 5 4 5 4 5 5 6 5 5 7 10 11 10 11 11 11 14 13 12 12 11 11 10 9 9 10 10 10 9 8 8 7 7 7 6 6 6 7 7 7 6 6
3 2 3 7 9 7 6 4 4 6 6 5 5 6 5 6 8 9 10 10 10 10 11 13 14 12 11 11 10 9 9 9 9 9 9 9 8 8 7 7 6 6 5 5 6 6 6 6 5
3 2 5 8 8 7 6 4 4 5 5 5 4 5 6 6 7 9 10 10 10 9 9 10 12 12 12 10 10 9 8 8 8 8 8 8 8 8 7 6 6 5 4 4 4 4 5 6 5
4 1 4 7 7 8 5 4 4 4 5 4 2 4 6 8 9 10 11 10 9 8 8 8 9 9 9 10 11 9 8 9 8 8 8 8 8 8 7 7 6 4 4 4 4 3 4 5 6
4 0 6 7 6 6 4 4 5 4 5 5 5 6 9 12 12 12 11 10 9 8 7 7 7 8 7 8 10 10 9 9 9 9 9 7 6 6 6 7 6 5 4 4 4 3 4 5 6
3 3 7 5 4 4 3 3 3 4 5 6 7 8 11 12 11 11 11 11 10 9 8 6 7 7 7 6 7 6 6 7 6 5 6 4 4 3 4 8 5 4 4 4 4 3 5 6 5
1 3 4 4 3 2 2 2 2 3 4 4 7 10 12 12 11 10 10 9 10 9 8 7 6 6 5 5 5 4 4 5 5 5 4 3 3 3 2 3 5 4 5 4 5 4 2 1 1
0 1 2 1 2 1 1 2 2 2 4 5 7 10 12 11 11 10 9 9 9 9 8 7 7 5 5 4 4 4 4 3 4 5 3 3 2 1 1 1 1 2 2 2 1 1 1 1 1
1 1 1 1 1 2 3 3 3 3 4 6 8 9 10 10 10 9 8 8 8 8 8 7 6 6 5 4 3 4 3 3 4 4 3 2 2 1 1 1 1 0 1 1 1 1 1 1 2
1 1 1 2 3 3 4 3 3 3 6 8 8 9 9 9 9 9 9 8 8 7 7 7 7 6 5 4 3 3 3 3 3 3 3 2 1 1 1 1 0 0 1 1 0 0 0 0 1
2 2 2 3 3 3 2 3 4 5 6 8 8 8 9 9 9 9 9 8 8 8 7 7 7 6 6 5 4 3 3 4 3 3 3 2 1 1 1 0 0 1 1 1 0 1 1 1 2
5 5 3 3 2 2 4 1 4 5 6 7 8 8 9 9 9 9 9 8 8 8 7 7 6 7 6 5 4 3 3 3 3 3 3 2 1 1 1 1 0 0 0 1 1 0 1 1 1
5 3 1 3 2 2 3 1 3 5 6 7 8 8 9 9 9 9 9 9 8 8 8 8 7 7 6 5 4 4 3 3 3 3 2 2 1 1 1 1 1 0 0 0 0 1 0 1 0
2 2 2 1 1 4 4 3 3 6 6 7 8 8 9 9 9 9 9 8 8 8 8 8 8 7 7 5 4 3 3 3 3 3 2 2 2 1 1 1 1 1 1 0 0 1 0 1 1
5 4 4 2 2 4 4 4 4 6 7 7 8 9 9 8 8 9 9 9 9 9 9 9 9 9 7 5 4 4 4 3 3 3 3 2 2 1 1 1 1 1 1 1 1 1 2 1 1
8 7 5 3 1 4 5 5 5 6 7 7 8 9 9 9 9 9 9 10 10 10 9 9 9 9 8 6 4 3 3 3 3 2 2 2 2 1 2 1 2 1 1 1 1 2 2 1 2
9 8 6 5 4 5 5 5 5 7 7 7 7 8 9 9 10 10 10 10 10 10 10 9 9 9 8 7 6 5 4 3 3 3 2 2 2 2 2 2 1 1 2 2 2 2 2 2 1
8 6 6 6 7 4 5 5 4 6 8 9 9 9 10 10 10 10 10 10 11 11 10 10 10 9 8 8 6 6 5 4 3 2 2 2 2 3 2 2 2 2 1 1 2 2 2 2 2
5 3 5 7 8 7 6 7 3 6 7 8 9 9 10 10 10 10 10 10 10 10 10 10 10 9 9 8 7 6 5 4 3 3 3 2 2 2 2 2 2 2 2 1 2 1 2 2 2
5 5 6 8 9 9 6 7 4 3 5 6 8 8 9 9 10 10 10 10 9 10 10 10 10 9 9 9 8 8 6 5 4 3 2 2 2 2 2 3 3 3 2 2 2 2 3 2 3
9 8 6 7 7 6 3 6 4 0 2 4 5 7 8 9 10 10 10 11 10 11 10 10 10 9 9 9 8 8 7 6 5 4 3 3 2 2 2 2 3 2 2 2 2 2 2 2 3
10 11 8 6 6 4 4 5 2 2 1 2 4 6 8 9 10 10 10 10 10 11 10 10 10 9 9 8 7 7 7 5 4 5 4 3 2 2 2 3 3 3 3 3 2 2 2 2 3
9 10 9 8 8 7 4 4 4 4 3 4 5 6 7 8 9 9 10 10 10 10 10 10 10 9 9 8 7 7 6 5 5 5 5 4 3 3 3 3 3 3 3 3 3 2 2 3 3
8 7 7 8 7 8 6 7 3 3 3 4 5 6 6 7 7 9 9 10 9 9 10 10 10 9 8 8 8 7 7 6 6 5 5 4 4 3 3 3 3 3 3 3 3 2 2 2 1
9 10 8 8 8 8 7 3 2 0 1 3 4 4 5 6 6 7 8 8 9 9 10 10 9 9 8 7 7 6 6 6 6 5 5 5 4 4 4 4 3 3 3 3 3 2 2 2 1
10 11 11 9 8 9 10 4 4 1 0 1 3 3 3 4 4 6 8 9 9 10 10 10 9 9 8 8 7 6 6 6 6 6 5 5 5 5 5 4 4 4 3 3 3 3 3 3 3
Wind_Direction
179 179 196 228 230 109 64 57 55 52 51 49 46 45 47 35 27 69 92 112 122 129 130 132 128 128 129 129 130 130 127 128 132 136 137 137 138 141 144 145 145 147 146 144 144 145 146 151 150
173 177 219 238 146 79 66 55 54 48 63 67 57 58 61 59 56 93 118 121 131 128 129 126 125 126 124 125 125 125 123 125 130 136 135 136 137 139 143 145 148 150 150 148 149 149 151 152 152
178 215 255 249 59 58 63 55 58 64 66 54 60 47 53 64 82 104 122 134 133 125 126 121 124 123 123 124 122 120 119 115 119 132 134 132 132 136 140 142 146 147 149 150 150 149 154 157 157
204 226 236 85 73 61 63 60 63 76 68 56 72 76 77 60 87 115 128 135 128 126 125 121 125 122 123 123 121 117 115 112 113 123 126 126 127 132 138 142 142 143 148 150 153 154 154 156 158
241 255 142 86 75 70 67 58 50 62 62 71 80 92 86 76 105 121 131 133 128 126 124 124 127 124 122 122 122 117 115 114 114 118 124 124 124 128 135 137 138 143 146 148 155 160 161 164 162
248 253 68 76 78 78 72 67 65 71 79 83 91 96 89 111 121 130 133 133 129 127 128 127 129 126 123 121 121 118 117 117 120 123 123 123 124 128 129 128 129 129 129 140 153 157 159 161 166
295 26 65 77 82 80 66 61 59 70 72 72 93 103 114 124 125 133 134 132 130 131 131 132 134 133 132 126 124 124 124 124 126 127 126 124 122 123 118 118 122 117 121 132 144 153 161 167 172
294 300 78 75 77 78 77 71 58 58 72 82 103 109 121 132 131 131 133 133 132 134 134 134 134 133 137 136 133 131 130 130 131 129 128 127 130 131 130 132 124 124 131 133 134 145 159 172 178
267 224 68 62 66 81 84 79 71 76 94 89 84 83 111 132 134 135 134 135 137 137 139 137 137 138 141 136 136 145 144 141 147 141 138 153 148 137 143 116 114 127 133 132 130 138 161 183 181
264 50 54 43 54 78 80 75 88 115 113 110 112 109 122 139 145 146 144 145 146 146 144 141 142 141 142 137 139 149 146 142 148 131 137 143 129 127 124 121 134 138 141 147 148 174 191 217 184
306 39 41 49 56 67 85 88 101 118 113 122 138 142 145 150 154 154 151 150 148 147 146 149 147 144 144 140 144 145 138 137 135 129 137 129 130 133 132 138 149 159 172 166 153 183 185 182 151
149 35 1 40 46 61 89 111 110 95 88 109 134 145 152 158 160 159 156 154 151 153 154 152 147 143 148 144 143 149 141 137 131 127 129 125 117 120 117 147 137 164 156 128 142 155 149 177 170
163 56 50 68 87 93 123 123 109 112 122 129 136 149 157 160 158 158 158 157 160 162 160 155 152 148 152 152 156 144 140 141 129 126 126 117 123 117 105 92 74 92 94 133 167 164 178 196 178
80 100 102 96 113 126 127 123 130 124 138 147 154 161 164 164 162 158 163 167 169 169 164 160 165 161 160 161 154 148 148 149 142 136 127 142 134 119 127 121 85 58 80 49 38 47 135 176 129
200 189 149 122 134 140 152 139 138 146 155 159 162 165 167 169 168 170 171 175 172 170 165 167 169 164 164 164 160 157 161 155 154 143 143 161 150 128 172 151 190 49 72 98 147 98 120 141 139
210 217 171 130 153 189 250 133 131 156 172 170 167 168 173 174 176 173 174 178 172 169 167 173 169 163 162 160 157 154 163 157 156 149 149 153 157 161 205 184 197 125 164 163 142 174 120 110 131
216 229 172 144 185 233 251 219 155 168 180 178 176 174 176 176 180 178 179 179 172 171 170 170 169 166 164 159 155 157 160 164 159 151 154 147 155 156 190 175 98 207 179 227 214 126 171 148 124
232 255 259 257 225 257 254 238 188 185 194 190 184 180 181 182 185 183 183 179 173 170 171 172 172 169 168 166 162 161 159 169 167 160 151 155 159 163 217 169 164 201 180 205 13 75 29 283 251
266 266 270 275 274 269 260 249 219 196 202 197 192 188 187 186 178 178 182 179 174 171 172 178 179 170 173 173 177 170 168 171 166 165 152 165 174 175 258 286 184 216 177 194 205 204 180 207 195
243 251 253 251 257 274 272 262 227 207 207 202 197 193 192 188 179 178 182 181 180 175 174 176 179 175 179 175 176 175 162 177 173 170 157 178 180 201 212 230 233 200 175 173 194 216 231 212 213
236 247 257 273 277 241 261 235 206 196 201 200 203 199 195 192 187 181 183 185 184 182 183 182 179 177 181 175 174 167 165 183 179 183 182 187 192 203 228 228 247 220 213 177 191 209 229 245 228
235 239 252 256 261 256 261 272 208 198 200 204 203 199 196 194 191 186 184 186 188 188 186 185 181 180 179 176 181 182 184 191 184 189 167 183 194 207 214 216 217 233 230 191 216 191 237 254 249
247 234 244 252 258 262 248 272 224 191 207 205 203 201 198 193 190 188 187 187 187 185 185 180 179 180 178 178 180 189 194 193 181 179 167 200 193 200 205 208 211 224 236 237 257 233 243 248 267
204 213 226 240 249 252 251 264 263 200 216 204 194 196 196 191 188 187 185 182 185 182 181 176 175 180 180 182 184 193 194 191 181 192 187 201 197 194 192 208 216 224 235 232 237 240 226 252 272
211 228 232 233 232 247 217 253 271 174 228 226 202 191 190 188 185 184 183 182 182 181 180 176 174 179 183 186 190 194 195 191 192 200 203 218 213 201 192 215 222 231 235 241 244 230 262 252 250
217 233 247 260 259 252 201 250 257 136 190 203 199 186 182 185 186 185 184 182 181 179 177 177 176 179 182 184 188 192 194 198 196 205 218 219 229 226 196 205 218 229 238 243 238 248 249 252 249
214 231 257 271 267 266 250 250 228 184 205 196 188 177 175 181 184 185 183 183 180 178 177 176 175 179 182 181 180 186 194 200 198 197 212 218 224 218 199 203 210 220 231 245 246 248 260 261 257
244 235 236 249 261 264 259 250 254 193 211 191 186 177 169 175 182 185 184 182 180 178 173 173 176 180 184 184 187 183 189 194 200 209 208 217 216 214 206 206 212 218 225 230 242 236 237 248 259
206 218 233 247 260 270 272 274 57 169 237 210 191 174 170 176 183 183 179 178 176 173 172 174 174 179 184 188 190 187 189 191 194 197 201 204 208 205 207 208 207 207 209 212 220 235 233 244 260
224 228 226 239 248 258 274 278 99 95 29 186 172 156 157 165 172 172 167 168 170 171 173 173 176 180 181 181 183 187 188 190 193 191 195 195 198 203 202 202 202 208 211 220 225 233 230 234 238
Height
1503 1504 1505 1507 1501 1495 1495 1492 1489 1490 1492 1496 1496 1495 1495 1497 1499 1507 1508 1507 1507 1508 1508 1508 1509 1510 1511 1513 1515 1516 1517 1518 1519 1521 1522 1524 1526 1527 1529 1530 1532 1534 1535 1536 1537 1539 1540 1541 1542
1505 1505 1507 1504 1494 1498 1499 1492 1492 1494 1496 1497 1497 1497 1497 1500 1504 1506 1507 1508 1509 1510 1511 1511 1511 1512 1513 1514 1516 1517 1518 1518 1518 1520 1522 1525 1527 1528 1530 1531 1533 1534 1536 1537 1538 1539 1540 1541 1542
1506 1506 1506 1496 1493 1498 1500 1494 1494 1496 1498 1498 1498 1499 1501 1504 1506 1507 1508 1509 1511 1512 1513 1512 1513 1514 1515 1516 1518 1519 1519 1518 1516 1518 1522 1525 1528 1529 1531 1532 1534 1535 1536 1537 1538 1539 1541 1542 1543
1507 1507 1503 1495 1496 1495 1495 1495 1496 1496 1498 1499 1498 1501 1504 1507 1507 1508 1509 1511 1513 1514 1515 1514 1515 1516 1517 1519 1520 1521 1521 1520 1518 1520 1524 1527 1529 1530 1532 1533 1535 1536 1537 1538 1539 1540 1541 1542 1543
1507 1504 1495 1495 1495 1495 1495 1496 1497 1495 1497 1499 1499 1502 1506 1508 1508 1509 1510 1512 1514 1516 1516 1517 1518 1519 1520 1521 1522 1523 1524 1524 1524 1525 1527 1529 1530 1532 1533 1534 1535 1536 1537 1538 1540 1540 1541 1542 1543
1506 1498 1495 1499 1497 1495 1496 1497 1497 1497 1499 1500 1501 1502 1507 1509 1508 1509 1511 1513 1515 1517 1519 1519 1520 1521 1522 1523 1524 1525 1526 1526 1527 1528 1529 1530 1532 1533 1534 1535 1536 1537 1538 1539 1540 1541 1542 1542 1543
1504 1495 1495 1495 1497 1496 1497 1498 1498 1498 1499 1501 1503 1503 1508 1509 1508 1508 1511 1514 1517 1519 1521 1522 1523 1523 1524 1526 1526 1527 1528 1528 1529 1530 1531 1532 1533 1534 1535 1536 1537 1538 1538 1539 1540 1541 1541 1542 1543
1505 1497 1493 1493 1496 1498 1498 1499 1500 1500 1501 1504 1504 1503 1507 1509 1508 1509 1512 1515 1518 1520 1522 1524 1525 1526 1528 1528 1529 1529 1530 1530 1531 1532 1533 1534 1535 1536 1536 1537 1538 1538 1539 1540 1540 1540 1541 1542 1542
1505 1497 1495 1494 1495 1496 1498 1499 1501 1502 1503 1505 1506 1506 1509 1510 1510 1512 1514 1517 1519 1522 1523 1525 1527 1528 1529 1531 1531 1531 1531 1532 1533 1534 1535 1536 1537 1538 1538 1539 1539 1539 1540 1540 1540 1540 1541 1541 1542
1501 1496 1495 1494 1494 1495 1498 1499 1501 1502 1503 1505 1507 1509 1511 1512 1513 1514 1516 1518 1521 1523 1525 1526 1528 1529 1531 1532 1532 1533 1534 1534 1535 1535 1537 1538 1538 1539 1540 1539 1540 1540 1540 1540 1540 1540 1541 1542 1543
1499 1496 1495 1496 1496 1497 1498 1500 1501 1500 1501 1504 1507 1510 1512 1513 1515 1516 1518 1520 1522 1524 1526 1527 1529 1530 1531 1532 1533 1534 1535 1535 1536 1536 1538 1538 1539 1540 1540 1541 1541 1540 1540 1541 1541 1541 1542 1542 1542
1498 1497 1497 1497 1498 1498 1499 1499 1500 1501 1503 1506 1508 1510 1512 1514 1516 1517 1519 1521 1523 1525 1526 1528 1529 1530 1531 1533 1534 1535 1536 1536 1537 1538 1538 1539 1540 1540 1541 1541 1541 1541 1541 1541 1541 1541 1541 1541 1541
1497 1497 1498 1498 1498 1498 1499 1500 1501 1503 1505 1507 1509 1511 1512 1514 1516 1518 1520 1522 1524 1525 1527 1528 1529 1530 1531 1532 1534 1535 1536 1537 1538 1538 1539 1539 1540 1541 1541 1541 1541 1541 1541 1541 1540 1540 1539 1539 1540
1498 1497 1497 1497 1498 1499 1499 1500 1501 1503 1506 1507 1509 1511 1513 1514 1516 1518 1520 1522 1523 1525 1527 1528 1529 1531 1532 1533 1534 1535 1537 1537 1538 1539 1540 1540 1541 1541 1541 1541 1541 1541 1541 1541 1540 1540 1538 1538 1539
1498 1496 1495 1495 1497 1498 1498 1498 1500 1503 1505 1507 1509 1511 1513 1514 1516 1518 1520 1521 1523 1525 1527 1528 1529 1531 1532 1533 1535 1536 1537 1538 1538 1539 1540 1540 1541 1541 1541 1541 1541 1541 1541 1541 1540 1540 1539 1539 1540
1495 1493 1495 1494 1495 1497 1498 1501 1499 1503 1504 1505 1507 1510 1512 1514 1516 1518 1519 1521 1523 1525 1526 1527 1530 1531 1532 1533 1535 1536 1537 1538 1538 1539 1540 1540 1540 1541 1541 1541 1542 1541 1541 1541 1541 1540 1540 1540 1540
1492 1494 1494 1494 1493 1493 1494 1497 1497 1501 1502 1504 1506 1508 1511 1513 1516 1517 1519 1521 1522 1524 1525 1527 1529 1530 1532 1533 1534 1535 1536 1537 1538 1539 1540 1540 1540 1540 1541 1541 1541 1541 1541 1541 1541 1541 1541 1540 1540
1496 1494 1495 1494 1491 1491 1492 1492 1494 1498 1500 1502 1504 1507 1509 1511 1514 1516 1518 1520 1522 1523 1524 1526 1528 1529 1531 1533 1534 1535 1536 1537 1538 1538 1539 1539 1540 1540 1540 1541 1540 1541 1541 1540 1540 1540 1540 1540 1540
1491 1493 1495 1492 1489 1491 1490 1490 1491 1495 1497 1499 1502 1505 1507 1510 1513 1515 1517 1519 1520 1522 1523 1525 1527 1528 1530 1532 1533 1534 1536 1537 1538 1538 1538 1539 1540 1540 1540 1540 1540 1540 1540 1540 1540 1540 1539 1540 1540
1492 1494 1493 1490 1489 1490 1489 1489 1487 1491 1494 1497 1499 1502 1505 1508 1511 1513 1515 1517 1518 1520 1521 1523 1525 1527 1529 1530 1532 1534 1535 1536 1537 1538 1538 1538 1539 1539 1540 1539 1540 1539 1539 1538 1539 1539 1539 1540 1540
1491 1492 1491 1492 1489 1487 1489 1489 1487 1487 1492 1495 1497 1499 1502 1505 1508 1511 1513 1515 1516 1518 1520 1522 1524 1525 1527 1529 1531 1533 1534 1536 1537 1537 1538 1538 1538 1539 1539 1539 1539 1539 1539 1538 1538 1538 1538 1539 1539
1491 1486 1488 1490 1492 1489 1489 1495 1485 1483 1487 1491 1494 1496 1499 1502 1505 1508 1510 1512 1515 1517 1519 1520 1522 1524 1526 1528 1530 1532 1533 1535 1536 1537 1537 1537 1538 1538 1538 1538 1538 1538 1538 1537 1537 1537 1538 1538 1539
1486 1485 1487 1488 1489 1490 1487 1491 1483 1479 1484 1485 1488 1492 1495 1499 1502 1505 1507 1510 1513 1515 1517 1519 1520 1523 1525 1527 1529 1530 1532 1534 1535 1536 1536 1536 1537 1537 1537 1537 1537 1537 1537 1536 1536 1536 1536 1537 1537
1485 1488 1488 1486 1485 1498 1489 1492 1487 1475 1478 1479 1484 1489 1493 1496 1499 1502 1505 1508 1511 1513 1515 1517 1519 1521 1523 1525 1527 1529 1530 1532 1533 1534 1535 1535 1536 1536 1536 1536 1536 1536 1536 1535 1535 1535 1535 1535 1535
1485 1490 1498 1501 1500 1496 1483 1488 1483 1473 1475 1478 1481 1486 1490 1494 1497 1500 1503 1505 1508 1511 1513 1515 1517 1519 1522 1524 1525 1527 1528 1530 1531 1532 1533 1534 1535 1535 1535 1535 1534 1535 1534 1534 1534 1533 1534 1533 1533
1482 1484 1498 1507 1502 1490 1486 1487 1475 1472 1476 1479 1481 1484 1488 1492 1494 1497 1500 1502 1505 1508 1510 1513 1515 1518 1520 1522 1523 1525 1526 1528 1529 1530 1531 1532 1532 1533 1533 1533 1533 1533 1533 1533 1532 1533 1532 1532 1532
1482 1481 1475 1484 1486 1491 1483 1478 1471 1472 1475 1477 1479 1483 1486 1490 1492 1495 1498 1500 1503 1506 1508 1511 1513 1515 1518 1520 1521 1523 1524 1525 1527 1527 1529 1529 1530 1530 1531 1531 1531 1531 1531 1531 1531 1531 1530 1531 1530
1476 1475 1480 1486 1500 1501 1488 1482 1476 1473 1472 1474 1477 1480 1485 1488 1491 1493 1496 1498 1501 1503 1506 1509 1511 1513 1515 1518 1519 1521 1522 1523 1524 1525 1526 1527 1527 1528 1528 1529 1529 1529 1529 1529 1529 1529 1529 1529 1528
1480 1480 1479 1480 1481 1494 1496 1483 1466 1470 1471 1473 1476 1480 1484 1486 1489 1491 1494 1496 1499 1501 1504 1506 1509 1511 1513 1516 1517 1518 1520 1521 1521 1522 1523 1524 1525 1526 1526 1526 1527 1527 1527 1527 1527 1528 1527 1527 1527
1471 1472 1476 1486 1488 1484 1486 1481 1466 1469 1470 1473 1477 1481 1484 1486 1488 1490 1492 1494 1497 1499 1502 1504 1507 1509 1511 1513 1515 1516 1517 1519 1519 1520 1521 1522 1522 1523 1524 1524 1524 1525 1525 1525 1525 1526 1525 1525 1525